M7VJL-13 Weather Reports


time (UTC)temp
F
wind
direction
speed
knots
gust
knots
rain 1hr
in
rain 24hr
in
rain mn
in
humidity
%
barometer
mb
20260506044503 40 304 1.7 7.8 0.00 0.00 0.00 90 1013.0
20260506043002 40 305 1.7 6.1 0.00 0.00 0.00 89 1012.9
20260506041509 41 279 0.9 5.2 0.00 0.00 0.00 89 1013.0
20260506040006 41 355 1.7 6.1 0.00 0.00 0.00 89 1013.0
20260506034505 41 271 1.7 7.0 0.00 0.00 0.00 89 1013.1
20260506033004 41 281 1.7 8.7 0.00 0.00 0.00 89 1013.2
20260506031506 41 281 1.7 6.1 0.00 0.00 0.00 89 1013.2
20260506030019 42 275 1.7 6.1 0.00 0.00 0.00 88 1013.3
20260506024514 42 277 0.9 6.1 0.00 0.00 0.00 88 1013.3
20260506023008 42 300 1.7 5.2 0.00 0.00 0.00 88 1013.4
20260506021508 43 292 0.9 7.8 0.00 0.00 0.00 87 1013.5
20260506020010 43 284 0.9 7.0 0.00 0.00 0.00 87 1013.6
20260506014517 44 265 0.9 6.1 0.00 0.00 0.00 86 1013.7
20260506013007 44 336 1.7 7.0 0.00 0.00 0.00 85 1013.7
20260506011510 45 326 1.7 6.1 0.00 0.00 0.00 84 1013.7
20260506004512 46 287 0.9 5.2 0.00 0.00 0.00 84 1013.8
20260506003015 46 292 1.7 8.7 0.00 0.00 0.00 84 1013.9
20260506001511 46 306 0.9 4.3 0.00 0.00 0.00 84 1013.9
20260506000011 46 311 1.7 7.8 0.00 0.00 0.00 83 1014.0
20260505234519 46 306 0.0 3.5 0.00 0.00 0.00 82 1014.0
20260505233019 46 286 0.0 7.0 0.00 0.00 0.00 81 1014.2
20260505231514 47 288 0.9 7.0 0.00 0.00 0.00 81 1014.2
20260505230032 47 346 0.9 4.3 0.00 0.00 0.00 81 1014.2
20260505224514 47 44 0.0 5.2 0.00 0.00 0.00 81 1014.1
20260505223017 47 254 0.9 7.8 0.00 0.00 0.00 80 1014.1
20260505221518 48 74 1.7 4.3 0.00 0.00 0.00 82 1014.2
20260505220024 48 17 0.0 4.3 0.00 0.00 0.00 82 1014.2
20260505214516 48 168 1.7 7.8 0.00 0.00 0.00 82 1014.2
20260505213022 48 126 0.0 4.3 0.00 0.00 0.00 81 1014.2
20260505210017 49 280 0.9 3.5 0.00 0.00 0.00 79 1014.3
20260505210004 49 280 0.0 3.5 0.00 0.00 0.00 79 1014.3
20260505204505 49 111 0.9 5.2 0.00 0.00 0.00 77 1014.2
20260505203018 49 188 1.7 5.2 0.00 0.00 0.00 78 1014.1
20260505201515 49 333 0.9 7.0 0.00 0.00 0.00 81 1014.0
20260505200003 50 94 0.9 7.0 0.00 0.00 0.00 81 1013.9
20260505194504 50 31 1.7 7.0 0.00 0.00 0.00 81 1013.7
20260505193005 51 86 0.9 7.8 0.00 0.00 0.00 80 1013.6
20260505191510 51 55 0.9 4.3 0.00 0.00 0.00 80 1013.4
20260505190014 51 35 0.9 4.3 0.00 0.00 0.00 79 1013.3
20260505184503 52 257 1.7 7.0 0.00 0.00 0.00 79 1013.0
20260505183004 52 105 0.9 6.1 0.00 0.00 0.00 79 1012.8
20260505181507 52 229 1.7 7.0 0.00 0.00 0.00 79 1012.8
20260505180021 53 113 1.7 7.0 0.00 0.00 0.00 80 1012.7
20260505174513 53 123 0.9 7.8 0.00 0.00 0.00 79 1012.7
20260505173004 54 76 2.6 6.1 0.00 0.00 0.00 77 1012.7
20260505171505 54 150 0.9 6.1 0.00 0.00 0.00 77 1012.7
20260505170010 55 67 0.9 5.2 0.00 0.00 0.00 76 1012.7
20260505164509 56 143 0.9 6.1 0.00 0.00 0.00 75 1012.5
20260505163017 56 341 0.9 4.3 0.00 0.00 0.00 75 1012.6
20260505161522 56 194 0.9 7.8 0.00 0.00 0.00 75 1012.3
20260505153014 57 186 0.9 5.2 0.00 0.00 0.00 74 1012.3
20260505151519 57 316 1.7 7.0 0.00 0.00 0.00 73 1012.3
20260505124522 60 355 1.7 8.7 0.00 0.00 0.00 65 1012.4
20260505123031 61 317 4.3 9.6 0.00 0.00 0.00 60 1012.3
20260505121514 61 317 4.3 9.6 0.00 0.00 0.00 63 1012.3
20260505120022 61 290 2.6 10.4 0.00 0.00 0.00 64 1012.4
20260505114519 61 326 1.7 6.1 0.00 0.00 0.00 64 1012.5
20260505113005 59 298 0.9 8.7 0.00 0.00 0.00 69 1012.6
20260505111516 58 360 1.7 7.0 0.00 0.00 0.00 70 1012.8
20260505101522 58 304 1.7 6.1 0.00 0.00 0.00 75 1013.1
20260505100032 56 294 0.9 6.1 0.00 0.00 0.00 75 1013.2
20260505094520 56 286 2.6 7.0 0.00 0.00 0.00 76 1013.1
20260505093004 55 252 0.9 6.1 0.00 0.00 0.00 79 1013.2
20260505091502 54 355 0.9 3.5 0.00 0.00 0.00 79 1013.3
20260505090008 53 288 1.7 7.0 0.00 0.00 0.00 80 1013.4
20260505084512 53 317 0.0 6.1 0.00 0.00 0.00 82 1013.4
20260505083023 53 286 0.9 5.2 0.00 0.00 0.00 85 1013.4
20260505074511 49 289 1.7 3.5 0.00 0.00 0.00 94 1013.4